TimeEST,TemperatureF,Dew PointF,Humidity,Sea Level PressureIn,VisibilityMPH,Wind Direction,Wind SpeedMPH,Gust SpeedMPH,PrecipitationIn,Events,Conditions,WindDirDegrees,DateUTC
12:53 AM,59.0,55.9,90,30.10,10.0,Calm,Calm,-,N/A,,Clear,0,2013-02-20 05:53:00
1:53 AM,59.0,55.0,87,30.10,10.0,West,4.6,-,N/A,,Clear,270,2013-02-20 06:53:00
2:53 AM,57.0,54.0,89,30.09,10.0,Calm,Calm,-,N/A,,Clear,0,2013-02-20 07:53:00
3:53 AM,55.9,54.0,93,30.08,10.0,WNW,5.8,-,N/A,,Clear,290,2013-02-20 08:53:00
4:53 AM,57.0,54.0,89,30.08,10.0,West,5.8,-,N/A,,Clear,280,2013-02-20 09:53:00
5:53 AM,55.0,53.1,93,30.09,8.0,WNW,5.8,-,N/A,,Clear,290,2013-02-20 10:53:00
6:53 AM,57.0,55.0,93,30.11,8.0,West,3.5,-,N/A,,Clear,260,2013-02-20 11:53:00
7:37 AM,59.0,57.2,94,30.12,5.0,NW,5.8,-,N/A,,Partly Cloudy,320,2013-02-20 12:37:00
7:50 AM,60.8,60.8,100,30.12,6.0,NW,6.9,-,N/A,,Mostly Cloudy,320,2013-02-20 12:50:00
7:53 AM,61.0,60.1,97,30.12,2.0,NW,8.1,-,N/A,,Mostly Cloudy,320,2013-02-20 12:53:00
8:14 AM,62.6,60.8,94,30.12,5.0,NNW,6.9,-,N/A,,Partly Cloudy,330,2013-02-20 13:14:00
8:53 AM,66.0,62.1,87,30.13,9.0,NNW,6.9,-,N/A,,Clear,330,2013-02-20 13:53:00
9:53 AM,70.0,61.0,73,30.13,10.0,North,8.1,-,N/A,,Clear,10,2013-02-20 14:53:00
10:53 AM,73.0,63.0,71,30.12,10.0,ENE,8.1,-,N/A,,Scattered Clouds,70,2013-02-20 15:53:00
11:53 AM,73.0,63.0,71,30.12,10.0,NNE,9.2,-,N/A,,Scattered Clouds,20,2013-02-20 16:53:00
12:00 PM,73.4,62.6,69,30.12,10.0,North,9.2,-,N/A,,Mostly Cloudy,350,2013-02-20 17:00:00
12:38 PM,73.4,62.6,69,30.11,10.0,NE,11.5,-,N/A,,Scattered Clouds,50,2013-02-20 17:38:00
12:53 PM,73.0,62.1,68,30.10,10.0,NE,10.4,-,N/A,,Mostly Cloudy,50,2013-02-20 17:53:00
1:53 PM,73.9,62.1,66,30.06,10.0,ENE,9.2,-,N/A,,Clear,60,2013-02-20 18:53:00
2:53 PM,73.9,62.1,66,30.04,10.0,ENE,8.1,-,N/A,,Clear,60,2013-02-20 19:53:00
3:53 PM,73.9,60.1,62,30.04,10.0,East,6.9,-,N/A,,Clear,90,2013-02-20 20:53:00
4:53 PM,72.0,62.1,71,30.05,10.0,ENE,5.8,-,N/A,,Clear,70,2013-02-20 21:53:00
5:53 PM,69.1,62.1,78,30.07,10.0,NNE,9.2,-,N/A,,Scattered Clouds,20,2013-02-20 22:53:00
6:53 PM,68.0,62.1,81,30.08,10.0,NNE,5.8,-,N/A,,Overcast,30,2013-02-20 23:53:00
7:53 PM,66.0,62.1,87,30.08,10.0,NNE,3.5,-,N/A,,Scattered Clouds,20,2013-02-21 00:53:00
8:53 PM,66.0,62.1,87,30.09,10.0,NE,4.6,-,N/A,,Clear,40,2013-02-21 01:53:00
9:53 PM,66.0,62.1,87,30.10,10.0,North,5.8,-,N/A,,Clear,10,2013-02-21 02:53:00
10:53 PM,63.0,61.0,93,30.10,9.0,Calm,Calm,-,N/A,,Clear,0,2013-02-21 03:53:00
11:53 PM,64.0,62.1,93,30.09,10.0,North,4.6,-,N/A,,Clear,360,2013-02-21 04:53:00